| time (UTC) | temp C | wind direction | speed KPH | gust KPH | rain 1hr cm | rain 24hr cm | rain mn cm | humidity % | barometer mb |
| 20260507064537 | 13 | 146 | 3.2 | 6.4 | 0.00 | 0.15 | 0.15 | 97 | 977.5 |
| 20260507064049 | 13 | 79 | 3.2 | 6.4 | 0.00 | 0.15 | 0.15 | 97 | 977.5 |
| 20260507063037 | 13 | 102 | 3.2 | 6.4 | 0.00 | 0.15 | 0.15 | 97 | 977.5 |
| 20260507062536 | 13 | 152 | 1.6 | 4.8 | 0.00 | 0.15 | 0.15 | 97 | 977.5 |
| 20260507062036 | 13 | 103 | 1.6 | 4.8 | 0.00 | 0.15 | 0.15 | 97 | 977.5 |
| 20260507061531 | 13 | 108 | 1.6 | 3.2 | 0.00 | 0.15 | 0.15 | 97 | 977.5 |
| 20260507061026 | 13 | 116 | 1.6 | 1.6 | 0.00 | 0.15 | 0.15 | 97 | 977.5 |
| 20260507060519 | 13 | 126 | 1.6 | 3.2 | 0.00 | 0.15 | 0.15 | 97 | 977.5 |
| 20260507060019 | 13 | 76 | 1.6 | 3.2 | 0.00 | 0.15 | 0.15 | 97 | 977.5 |
| 20260507055518 | 13 | 108 | 0.0 | 3.2 | 0.00 | 0.15 | 0.15 | 97 | 977.6 |
| 20260507055016 | 13 | 114 | 0.0 | 3.2 | 0.00 | 0.15 | 0.15 | 97 | 977.5 |
| 20260507054515 | 13 | 165 | 0.0 | 0.0 | 0.00 | 0.15 | 0.15 | 97 | 977.5 |
| 20260507054015 | 13 | 165 | 0.0 | 3.2 | 0.00 | 0.15 | 0.15 | 97 | 977.4 |
| 20260507053516 | 13 | 164 | 1.6 | 3.2 | 0.00 | 0.15 | 0.15 | 97 | 977.4 |
| 20260507053013 | 13 | 148 | 1.6 | 4.8 | 0.00 | 0.15 | 0.15 | 97 | 977.3 |
| 20260507052519 | 13 | 155 | 1.6 | 4.8 | 0.00 | 0.15 | 0.15 | 97 | 977.2 |
| 20260507052012 | 13 | 198 | 0.0 | 4.8 | 0.00 | 0.15 | 0.15 | 97 | 977.2 |
| 20260507051511 | 12 | 210 | 1.6 | 3.2 | 0.00 | 0.15 | 0.15 | 97 | 977.1 |
| 20260507051013 | 12 | 151 | 1.6 | 3.2 | 0.00 | 0.15 | 0.15 | 97 | 977.1 |
| 20260507050512 | 12 | 243 | 0.0 | 3.2 | 0.00 | 0.15 | 0.15 | 97 | 977.1 |
| 20260507050013 | 12 | 237 | 0.0 | 3.2 | 0.00 | 0.15 | 0.15 | 97 | 977.1 |
| 20260507045509 | 12 | 231 | 1.6 | 6.4 | 0.00 | 0.15 | 0.15 | 97 | 977.0 |
| 20260507045009 | 12 | 243 | 1.6 | 6.4 | 0.00 | 0.15 | 0.15 | 97 | 977.1 |
| 20260507044011 | 12 | 229 | 3.2 | 8.0 | 0.00 | 0.18 | 0.15 | 97 | 976.8 |
| 20260507043509 | 12 | 202 | 4.8 | 9.7 | 0.00 | 0.20 | 0.15 | 97 | 976.8 |
| 20260507043011 | 12 | 233 | 4.8 | 9.7 | 0.00 | 0.20 | 0.15 | 97 | 976.7 |
| 20260507042509 | 12 | 246 | 4.8 | 8.0 | 0.00 | 0.23 | 0.15 | 97 | 976.7 |
| 20260507041507 | 12 | 220 | 4.8 | 11.3 | 0.00 | 0.23 | 0.15 | 97 | 976.5 |
| 20260507041006 | 12 | 148 | 4.8 | 11.3 | 0.00 | 0.23 | 0.15 | 97 | 976.6 |
| 20260507040008 | 12 | 218 | 4.8 | 11.3 | 0.00 | 0.25 | 0.15 | 97 | 976.5 |
| 20260507035505 | 12 | 222 | 3.2 | 9.7 | 0.00 | 0.25 | 0.15 | 97 | 976.6 |
| 20260507035007 | 12 | 239 | 3.2 | 8.0 | 0.00 | 0.25 | 0.15 | 97 | 976.5 |
| 20260507034504 | 12 | 227 | 3.2 | 8.0 | 0.00 | 0.25 | 0.15 | 97 | 976.4 |
| 20260507033958 | 12 | 200 | 4.8 | 9.7 | 0.00 | 0.25 | 0.15 | 97 | 976.5 |
| 20260507033451 | 12 | 188 | 4.8 | 11.3 | 0.00 | 0.25 | 0.15 | 97 | 976.6 |
| 20260507031453 | 12 | 243 | 4.8 | 9.7 | 0.00 | 0.28 | 0.15 | 97 | 976.4 |
| 20260507030951 | 12 | 211 | 3.2 | 8.0 | 0.00 | 0.30 | 0.15 | 97 | 976.5 |
| 20260507030504 | 12 | 229 | 4.8 | 9.7 | 0.00 | 0.30 | 0.15 | 97 | 976.5 |
| 20260507025954 | 12 | 229 | 6.4 | 12.9 | 0.00 | 0.30 | 0.15 | 97 | 976.5 |
| 20260507025452 | 12 | 212 | 6.4 | 12.9 | 0.00 | 0.30 | 0.15 | 97 | 976.6 |
| 20260507024953 | 12 | 231 | 6.4 | 11.3 | 0.00 | 0.30 | 0.15 | 97 | 976.5 |
| 20260507024454 | 12 | 188 | 4.8 | 11.3 | 0.00 | 0.30 | 0.15 | 97 | 976.5 |
| 20260507023955 | 12 | 182 | 6.4 | 12.9 | 0.00 | 0.30 | 0.15 | 97 | 976.4 |
| 20260507023507 | 12 | 219 | 8.0 | 16.1 | 0.00 | 0.30 | 0.15 | 97 | 976.6 |
| 20260507022446 | 13 | 153 | 8.0 | 14.5 | 0.00 | 0.30 | 0.15 | 97 | 976.6 |
| 20260507021944 | 13 | 218 | 8.0 | 14.5 | 0.00 | 0.30 | 0.15 | 97 | 976.6 |
| 20260507021444 | 13 | 171 | 6.4 | 12.9 | 0.00 | 0.30 | 0.15 | 97 | 976.6 |
| 20260507020956 | 13 | 216 | 6.4 | 11.3 | 0.00 | 0.30 | 0.15 | 97 | 976.6 |
| 20260507020444 | 13 | 211 | 8.0 | 14.5 | 0.00 | 0.30 | 0.15 | 97 | 976.6 |
| 20260507015943 | 13 | 214 | 8.0 | 14.5 | 0.00 | 0.30 | 0.15 | 97 | 976.6 |
| 20260507015446 | 13 | 169 | 8.0 | 14.5 | 0.00 | 0.30 | 0.15 | 97 | 976.7 |
| 20260507014445 | 13 | 199 | 6.4 | 12.9 | 0.03 | 0.30 | 0.15 | 97 | 976.6 |
| 20260507013943 | 13 | 191 | 6.4 | 12.9 | 0.03 | 0.30 | 0.15 | 97 | 976.5 |
| 20260507013443 | 13 | 221 | 6.4 | 14.5 | 0.03 | 0.30 | 0.15 | 97 | 976.7 |
| 20260507012944 | 13 | 232 | 8.0 | 14.5 | 0.03 | 0.30 | 0.15 | 96 | 976.7 |
| 20260507012443 | 13 | 207 | 6.4 | 14.5 | 0.03 | 0.30 | 0.15 | 96 | 976.7 |
| 20260507011946 | 13 | 211 | 6.4 | 12.9 | 0.03 | 0.30 | 0.15 | 96 | 976.7 |
| 20260507011443 | 13 | 228 | 6.4 | 12.9 | 0.03 | 0.33 | 0.15 | 96 | 976.7 |
| 20260507010937 | 13 | 250 | 4.8 | 9.7 | 0.05 | 0.33 | 0.15 | 96 | 976.7 |
| 20260507010431 | 13 | 211 | 4.8 | 12.9 | 0.05 | 0.33 | 0.15 | 96 | 976.7 |
| 20260507005928 | 13 | 256 | 4.8 | 12.9 | 0.08 | 0.33 | 0.15 | 96 | 976.8 |
| 20260507005427 | 13 | 293 | 3.2 | 8.0 | 0.08 | 0.30 | 0.15 | 96 | 976.8 |
| 20260507004928 | 13 | 227 | 4.8 | 9.7 | 0.10 | 0.30 | 0.13 | 96 | 976.7 |
| 20260507004430 | 13 | 221 | 4.8 | 11.3 | 0.10 | 0.30 | 0.13 | 96 | 976.6 |
| 20260507003929 | 13 | 206 | 6.4 | 12.9 | 0.10 | 0.30 | 0.13 | 96 | 976.6 |
| 20260507003431 | 13 | 202 | 6.4 | 12.9 | 0.10 | 0.30 | 0.13 | 96 | 976.6 |
| 20260507002929 | 13 | 200 | 6.4 | 12.9 | 0.10 | 0.30 | 0.13 | 96 | 976.5 |
| 20260507001952 | 13 | 218 | 4.8 | 11.3 | 0.10 | 0.30 | 0.13 | 95 | 976.4 |
| 20260507000927 | 14 | 227 | 3.2 | 8.0 | 0.08 | 0.28 | 0.10 | 95 | 976.3 |
| 20260507000431 | 14 | 217 | 4.8 | 12.9 | 0.05 | 0.25 | 0.08 | 95 | 976.3 |
| 20260506235927 | 14 | 181 | 3.2 | 12.9 | 0.05 | 0.23 | 0.05 | 95 | 976.4 |
| 20260506235425 | 14 | 141 | 3.2 | 8.0 | 0.03 | 0.23 | 0.05 | 95 | 976.6 |
| 20260506234413 | 14 | 186 | 6.4 | 12.9 | 0.00 | 0.20 | 0.03 | 95 | 976.7 |
| 20260506233911 | 14 | 208 | 4.8 | 12.9 | 0.00 | 0.20 | 0.03 | 95 | 976.7 |
| 20260506233409 | 14 | 206 | 4.8 | 12.9 | 0.00 | 0.20 | 0.03 | 95 | 976.7 |
| 20260506232908 | 14 | 208 | 4.8 | 11.3 | 0.03 | 0.20 | 0.03 | 95 | 976.7 |
| 20260506232407 | 14 | 247 | 4.8 | 11.3 | 0.03 | 0.20 | 0.03 | 95 | 976.6 |
| 20260506231419 | 14 | 207 | 4.8 | 9.7 | 0.03 | 0.20 | 0.03 | 95 | 976.5 |
| 20260506230908 | 14 | 248 | 4.8 | 11.3 | 0.03 | 0.20 | 0.03 | 95 | 976.6 |
| 20260506225907 | 14 | 225 | 6.4 | 14.5 | 0.03 | 0.20 | 0.03 | 95 | 976.5 |
| 20260506225407 | 14 | 176 | 8.0 | 16.1 | 0.03 | 0.20 | 0.03 | 95 | 976.4 |
| 20260506224908 | 14 | 214 | 8.0 | 16.1 | 0.03 | 0.20 | 0.03 | 94 | 976.5 |
| 20260506224407 | 14 | 200 | 6.4 | 16.1 | 0.03 | 0.20 | 0.03 | 94 | 976.5 |
| 20260506223904 | 14 | 197 | 8.0 | 16.1 | 0.03 | 0.20 | 0.03 | 94 | 976.6 |
| 20260506223406 | 14 | 200 | 8.0 | 20.9 | 0.03 | 0.20 | 0.03 | 94 | 976.7 |
| 20260506222904 | 14 | 226 | 8.0 | 20.9 | 0.00 | 0.18 | 0.00 | 94 | 976.6 |
| 20260506222406 | 14 | 233 | 8.0 | 16.1 | 0.00 | 0.18 | 0.00 | 94 | 976.6 |
| 20260506221906 | 14 | 219 | 6.4 | 16.1 | 0.00 | 0.18 | 0.00 | 94 | 976.6 |
| 20260506221405 | 14 | 168 | 6.4 | 20.9 | 0.00 | 0.18 | 0.00 | 94 | 976.6 |
| 20260506220903 | 14 | 230 | 8.0 | 20.9 | 0.00 | 0.18 | 0.00 | 94 | 976.6 |
| 20260506220402 | 14 | 221 | 8.0 | 16.1 | 0.00 | 0.18 | 0.00 | 94 | 976.7 |
| 20260506215902 | 14 | 176 | 9.7 | 19.3 | 0.00 | 0.18 | 0.18 | 94 | 976.7 |
| 20260506215400 | 14 | 217 | 9.7 | 19.3 | 0.00 | 0.18 | 0.18 | 94 | 976.7 |
| 20260506214858 | 14 | 205 | 6.4 | 17.7 | 0.00 | 0.18 | 0.18 | 94 | 976.7 |
| 20260506214400 | 14 | 206 | 8.0 | 17.7 | 0.00 | 0.18 | 0.18 | 94 | 976.7 |
| 20260506213859 | 14 | 223 | 9.7 | 16.1 | 0.00 | 0.18 | 0.18 | 93 | 976.8 |
| 20260506213358 | 14 | 219 | 9.7 | 20.9 | 0.00 | 0.18 | 0.18 | 93 | 977.0 |
| 20260506212859 | 14 | 204 | 11.3 | 22.5 | 0.00 | 0.18 | 0.18 | 93 | 976.9 |
| 20260506211858 | 14 | 200 | 9.7 | 20.9 | 0.00 | 0.18 | 0.18 | 93 | 976.9 |
| 20260506211357 | 15 | 226 | 6.4 | 20.9 | 0.00 | 0.18 | 0.18 | 93 | 977.0 |
| 20260506210900 | 15 | 252 | 6.4 | 16.1 | 0.00 | 0.18 | 0.18 | 93 | 976.9 |
| 20260506210356 | 15 | 223 | 8.0 | 16.1 | 0.00 | 0.18 | 0.18 | 93 | 976.9 |
| 20260506205850 | 15 | 162 | 9.7 | 16.1 | 0.00 | 0.18 | 0.18 | 93 | 977.0 |
| 20260506205346 | 15 | 193 | 8.0 | 17.7 | 0.00 | 0.18 | 0.18 | 93 | 976.9 |
| 20260506204846 | 15 | 176 | 6.4 | 17.7 | 0.00 | 0.18 | 0.18 | 93 | 976.8 |
| 20260506204348 | 15 | 200 | 8.0 | 16.1 | 0.00 | 0.18 | 0.18 | 93 | 976.9 |
| 20260506203349 | 15 | 222 | 4.8 | 12.9 | 0.00 | 0.18 | 0.18 | 93 | 976.8 |
| 20260506202347 | 15 | 123 | 8.0 | 17.7 | 0.00 | 0.18 | 0.18 | 93 | 976.7 |
| 20260506201848 | 15 | 169 | 8.0 | 16.1 | 0.00 | 0.18 | 0.18 | 93 | 976.8 |
| 20260506201347 | 15 | 205 | 8.0 | 16.1 | 0.00 | 0.18 | 0.18 | 93 | 976.9 |
| 20260506200850 | 15 | 212 | 6.4 | 16.1 | 0.00 | 0.18 | 0.18 | 93 | 976.9 |
| 20260506195849 | 15 | 207 | 3.2 | 9.7 | 0.00 | 0.18 | 0.18 | 93 | 976.6 |
| 20260506194847 | 15 | 205 | 6.4 | 14.5 | 0.00 | 0.18 | 0.18 | 93 | 976.5 |
| 20260506194341 | 15 | 208 | 6.4 | 14.5 | 0.00 | 0.18 | 0.18 | 92 | 976.5 |
| 20260506193834 | 15 | 208 | 6.4 | 14.5 | 0.00 | 0.18 | 0.18 | 92 | 976.4 |
| 20260506192833 | 15 | 257 | 6.4 | 12.9 | 0.00 | 0.18 | 0.18 | 92 | 976.3 |
| 20260506192333 | 15 | 207 | 6.4 | 14.5 | 0.00 | 0.18 | 0.18 | 92 | 976.4 |
| 20260506191835 | 15 | 206 | 6.4 | 14.5 | 0.00 | 0.18 | 0.18 | 92 | 976.3 |
| 20260506191336 | 15 | 188 | 6.4 | 16.1 | 0.00 | 0.18 | 0.18 | 91 | 976.1 |
| 20260506190832 | 15 | 137 | 6.4 | 16.1 | 0.00 | 0.18 | 0.18 | 91 | 976.2 |
| 20260506190335 | 15 | 213 | 6.4 | 16.1 | 0.00 | 0.18 | 0.18 | 91 | 976.0 |
| 20260506185834 | 15 | 218 | 6.4 | 16.1 | 0.00 | 0.18 | 0.18 | 91 | 976.0 |
| 20260506185335 | 15 | 160 | 8.0 | 16.1 | 0.00 | 0.18 | 0.18 | 90 | 975.9 |
| 20260506184834 | 15 | 131 | 8.0 | 19.3 | 0.00 | 0.18 | 0.18 | 90 | 975.9 |
| 20260506184335 | 15 | 224 | 8.0 | 19.3 | 0.00 | 0.18 | 0.18 | 90 | 975.9 |
| 20260506183833 | 15 | 191 | 6.4 | 16.1 | 0.00 | 0.18 | 0.18 | 90 | 975.8 |
| 20260506183345 | 15 | 242 | 4.8 | 16.1 | 0.00 | 0.18 | 0.18 | 89 | 975.8 |
| 20260506182834 | 15 | 191 | 4.8 | 12.9 | 0.00 | 0.18 | 0.18 | 89 | 975.8 |
| 20260506182333 | 15 | 240 | 6.4 | 17.7 | 0.00 | 0.18 | 0.18 | 89 | 975.7 |
| 20260506181835 | 16 | 146 | 6.4 | 17.7 | 0.00 | 0.18 | 0.18 | 89 | 975.7 |
| 20260506181333 | 16 | 235 | 4.8 | 14.5 | 0.00 | 0.18 | 0.18 | 89 | 975.7 |
| 20260506175832 | 16 | 228 | 9.7 | 19.3 | 0.00 | 0.18 | 0.18 | 88 | 975.6 |
| 20260506175334 | 16 | 199 | 9.7 | 25.7 | 0.00 | 0.18 | 0.18 | 88 | 975.7 |
| 20260506174834 | 16 | 238 | 9.7 | 25.7 | 0.00 | 0.18 | 0.18 | 87 | 975.6 |
| 20260506174333 | 16 | 212 | 6.4 | 20.9 | 0.00 | 0.18 | 0.18 | 87 | 975.6 |
| 20260506173332 | 16 | 177 | 6.4 | 17.7 | 0.00 | 0.18 | 0.18 | 87 | 975.6 |
| 20260506172827 | 16 | 143 | 8.0 | 17.7 | 0.00 | 0.18 | 0.18 | 86 | 975.6 |
| 20260506172322 | 16 | 216 | 9.7 | 17.7 | 0.00 | 0.18 | 0.18 | 86 | 975.4 |
| 20260506171817 | 16 | 212 | 9.7 | 19.3 | 0.00 | 0.18 | 0.18 | 86 | 975.6 |
| 20260506171315 | 16 | 203 | 11.3 | 19.3 | 0.00 | 0.18 | 0.18 | 86 | 975.5 |
| 20260506170815 | 16 | 200 | 11.3 | 25.7 | 0.00 | 0.18 | 0.18 | 86 | 975.5 |
| 20260506170314 | 16 | 212 | 12.9 | 25.7 | 0.00 | 0.18 | 0.18 | 86 | 975.5 |
| 20260506165812 | 16 | 248 | 11.3 | 20.9 | 0.00 | 0.18 | 0.18 | 85 | 975.6 |
| 20260506165311 | 16 | 203 | 12.9 | 25.7 | 0.00 | 0.18 | 0.18 | 85 | 975.5 |
| 20260506164309 | 16 | 190 | 14.5 | 29.0 | 0.00 | 0.18 | 0.18 | 85 | 975.8 |
| 20260506163313 | 16 | 231 | 11.3 | 25.7 | 0.00 | 0.18 | 0.18 | 85 | 975.6 |
| 20260506162811 | 16 | 229 | 12.9 | 24.1 | 0.00 | 0.18 | 0.18 | 85 | 975.6 |
| 20260506162307 | 17 | 195 | 12.9 | 24.1 | 0.00 | 0.18 | 0.18 | 85 | 975.7 |
| 20260506161807 | 17 | 163 | 11.3 | 24.1 | 0.00 | 0.18 | 0.18 | 84 | 975.7 |
| 20260506161311 | 17 | 165 | 11.3 | 24.1 | 0.00 | 0.18 | 0.18 | 84 | 975.7 |
| 20260506160311 | 16 | 174 | 11.3 | 20.9 | 0.00 | 0.18 | 0.18 | 85 | 975.7 |
| 20260506155310 | 16 | 120 | 12.9 | 24.1 | 0.00 | 0.18 | 0.18 | 85 | 975.8 |
| 20260506154808 | 16 | 158 | 11.3 | 22.5 | 0.00 | 0.18 | 0.18 | 85 | 975.9 |
| 20260506154308 | 16 | 162 | 12.9 | 24.1 | 0.00 | 0.18 | 0.18 | 86 | 975.8 |
| 20260506153808 | 16 | 180 | 11.3 | 24.1 | 0.00 | 0.18 | 0.18 | 86 | 975.8 |
| 20260506153310 | 16 | 242 | 9.7 | 19.3 | 0.00 | 0.18 | 0.18 | 87 | 975.7 |
| 20260506152808 | 16 | 173 | 9.7 | 19.3 | 0.00 | 0.18 | 0.18 | 86 | 975.8 |
| 20260506152308 | 16 | 215 | 8.0 | 19.3 | 0.00 | 0.18 | 0.18 | 86 | 975.9 |
| 20260506151306 | 16 | 227 | 6.4 | 19.3 | 0.00 | 0.18 | 0.18 | 86 | 975.9 |
| 20260506150806 | 16 | 225 | 8.0 | 19.3 | 0.00 | 0.18 | 0.18 | 86 | 975.8 |
| 20260506150306 | 16 | 137 | 9.7 | 19.3 | 0.00 | 0.18 | 0.18 | 86 | 975.8 |
| 20260506145807 | 16 | 178 | 9.7 | 19.3 | 0.00 | 0.18 | 0.18 | 85 | 975.8 |
| 20260506145419 | 16 | 221 | 11.3 | 24.1 | 0.00 | 0.18 | 0.18 | 85 | 975.8 |
| 20260506145140 | 16 | 235 | 11.3 | 24.1 | 0.00 | 0.18 | 0.18 | 85 | 975.8 |
| 20260506144409 | 16 | 208 | 9.7 | 20.9 | 0.00 | 0.18 | 0.18 | 86 | 975.8 |
| 20260506143630 | 16 | 214 | 8.0 | 17.7 | 0.00 | 0.18 | 0.18 | 87 | 975.8 |
| 20260506143345 | 16 | 204 | 8.0 | 20.9 | 0.00 | 0.18 | 0.18 | 86 | 975.9 |
| 20260506143122 | 16 | 233 | 9.7 | 20.9 | 0.00 | 0.18 | 0.18 | 86 | 975.8 |
| 20260506142845 | 16 | 214 | 12.9 | 24.1 | 0.00 | 0.18 | 0.18 | 86 | 975.8 |
| 20260506142614 | 16 | 219 | 12.9 | 24.1 | 0.00 | 0.18 | 0.18 | 86 | 975.9 |
| 20260506133807 | 16 | 197 | 9.7 | 22.5 | 0.00 | 0.18 | 0.18 | 87 | 975.9 |
| 20260506132808 | 16 | 191 | 6.4 | 19.3 | 0.00 | 0.18 | 0.18 | 87 | 975.8 |
| 20260506132308 | 16 | 216 | 9.7 | 24.1 | 0.00 | 0.18 | 0.18 | 87 | 975.9 |
| 20260506131810 | 16 | 207 | 9.7 | 24.1 | 0.00 | 0.18 | 0.18 | 87 | 976.0 |
| 20260506130808 | 16 | 229 | 9.7 | 20.9 | 0.00 | 0.18 | 0.18 | 86 | 976.0 |
| 20260506130309 | 16 | 122 | 9.7 | 25.7 | 0.00 | 0.18 | 0.18 | 86 | 976.1 |
| 20260506125805 | 16 | 205 | 8.0 | 25.7 | 0.00 | 0.20 | 0.18 | 86 | 976.0 |
| 20260506125308 | 16 | 161 | 8.0 | 17.7 | 0.00 | 0.20 | 0.18 | 87 | 976.0 |
| 20260506124804 | 16 | 158 | 8.0 | 17.7 | 0.00 | 0.20 | 0.18 | 87 | 976.1 |
| 20260506124305 | 16 | 207 | 4.8 | 14.5 | 0.00 | 0.20 | 0.18 | 87 | 976.2 |
| 20260506123806 | 16 | 186 | 6.4 | 12.9 | 0.00 | 0.20 | 0.18 | 87 | 976.3 |
| 20260506123302 | 16 | 232 | 11.3 | 25.7 | 0.00 | 0.20 | 0.18 | 86 | 976.4 |
| 20260506122803 | 16 | 150 | 14.5 | 25.7 | 0.00 | 0.20 | 0.18 | 84 | 976.4 |
| 20260506121802 | 17 | 255 | 9.7 | 22.5 | 0.00 | 0.20 | 0.18 | 79 | 976.5 |
| 20260506121304 | 17 | 150 | 11.3 | 27.4 | 0.00 | 0.20 | 0.18 | 78 | 976.5 |
| 20260506120802 | 17 | 193 | 11.3 | 27.4 | 0.00 | 0.20 | 0.18 | 77 | 976.4 |
| 20260506120303 | 17 | 200 | 12.9 | 25.7 | 0.00 | 0.20 | 0.18 | 76 | 976.4 |
| 20260506115755 | 17 | 203 | 14.5 | 25.7 | 0.00 | 0.20 | 0.18 | 75 | 976.3 |
| 20260506115250 | 18 | 210 | 14.5 | 25.7 | 0.00 | 0.20 | 0.18 | 74 | 976.3 |
| 20260506114748 | 18 | 228 | 14.5 | 27.4 | 0.00 | 0.20 | 0.18 | 72 | 976.3 |
| 20260506114246 | 18 | 193 | 16.1 | 32.2 | 0.00 | 0.20 | 0.18 | 71 | 976.3 |
| 20260506113746 | 18 | 167 | 17.7 | 32.2 | 0.00 | 0.20 | 0.18 | 68 | 976.3 |
| 20260506113245 | 18 | 257 | 17.7 | 30.6 | 0.00 | 0.23 | 0.18 | 67 | 976.2 |
| 20260506112745 | 18 | 205 | 17.7 | 32.2 | 0.00 | 0.23 | 0.18 | 67 | 976.0 |
| 20260506112244 | 18 | 225 | 19.3 | 33.8 | 0.00 | 0.23 | 0.18 | 67 | 976.0 |
| 20260506111743 | 18 | 200 | 20.9 | 38.6 | 0.00 | 0.23 | 0.18 | 68 | 976.0 |
| 20260506111243 | 18 | 180 | 17.7 | 38.6 | 0.00 | 0.25 | 0.18 | 68 | 976.2 |
| 20260506110742 | 18 | 205 | 16.1 | 29.0 | 0.00 | 0.25 | 0.18 | 69 | 976.4 |
| 20260506110240 | 18 | 254 | 16.1 | 29.0 | 0.00 | 0.25 | 0.18 | 69 | 976.4 |
| 20260506105738 | 18 | 203 | 16.1 | 30.6 | 0.00 | 0.25 | 0.18 | 68 | 976.2 |
| 20260506105238 | 18 | 134 | 16.1 | 32.2 | 0.00 | 0.25 | 0.18 | 69 | 976.4 |
| 20260506104741 | 18 | 210 | 16.1 | 32.2 | 0.00 | 0.25 | 0.18 | 69 | 976.3 |
| 20260506103732 | 18 | 210 | 16.1 | 33.8 | 0.00 | 0.25 | 0.18 | 69 | 976.4 |
| 20260506103225 | 18 | 229 | 16.1 | 30.6 | 0.00 | 0.25 | 0.18 | 69 | 976.3 |
| 20260506102728 | 18 | 249 | 16.1 | 29.0 | 0.00 | 0.25 | 0.18 | 70 | 976.4 |
| 20260506102226 | 18 | 167 | 14.5 | 27.4 | 0.00 | 0.25 | 0.18 | 70 | 976.3 |
| 20260506101728 | 17 | 203 | 14.5 | 30.6 | 0.00 | 0.25 | 0.18 | 72 | 976.3 |
| 20260506101227 | 17 | 220 | 16.1 | 30.6 | 0.00 | 0.25 | 0.18 | 72 | 976.5 |
| 20260506100727 | 17 | 212 | 14.5 | 30.6 | 0.00 | 0.25 | 0.18 | 72 | 976.5 |
| 20260506100237 | 17 | 219 | 12.9 | 30.6 | 0.00 | 0.25 | 0.18 | 73 | 976.7 |
| 20260506095228 | 17 | 178 | 14.5 | 25.7 | 0.00 | 0.25 | 0.18 | 72 | 976.6 |
| 20260506094728 | 17 | 229 | 12.9 | 25.7 | 0.00 | 0.25 | 0.18 | 73 | 976.6 |
| 20260506094229 | 17 | 181 | 11.3 | 25.7 | 0.00 | 0.25 | 0.18 | 74 | 976.5 |
| 20260506093726 | 17 | 143 | 14.5 | 32.2 | 0.00 | 0.25 | 0.18 | 75 | 976.4 |
| 20260506093226 | 17 | 246 | 14.5 | 32.2 | 0.00 | 0.25 | 0.18 | 76 | 976.4 |
| 20260506092726 | 17 | 216 | 11.3 | 29.0 | 0.00 | 0.25 | 0.18 | 78 | 976.4 |
| 20260506092223 | 17 | 199 | 11.3 | 29.0 | 0.00 | 0.25 | 0.18 | 78 | 976.3 |
| 20260506090723 | 17 | 188 | 12.9 | 22.5 | 0.00 | 0.25 | 0.18 | 78 | 976.2 |
| 20260506090223 | 16 | 232 | 12.9 | 25.7 | 0.00 | 0.25 | 0.18 | 77 | 976.2 |
| 20260506085719 | 16 | 244 | 11.3 | 25.7 | 0.00 | 0.25 | 0.18 | 77 | 976.3 |
| 20260506085219 | 16 | 203 | 11.3 | 24.1 | 0.00 | 0.25 | 0.18 | 79 | 976.3 |
| 20260506084718 | 16 | 174 | 14.5 | 27.4 | 0.00 | 0.25 | 0.18 | 79 | 976.3 |
| 20260506084218 | 16 | 188 | 16.1 | 27.4 | 0.00 | 0.25 | 0.18 | 81 | 976.1 |
| 20260506083721 | 16 | 167 | 12.9 | 27.4 | 0.00 | 0.25 | 0.18 | 83 | 976.2 |
| 20260506083218 | 16 | 212 | 12.9 | 27.4 | 0.00 | 0.25 | 0.18 | 83 | 976.0 |
| 20260506082718 | 15 | 226 | 12.9 | 27.4 | 0.00 | 0.25 | 0.18 | 85 | 976.1 |
| 20260506082216 | 15 | 198 | 12.9 | 24.1 | 0.00 | 0.25 | 0.18 | 87 | 976.0 |
| 20260506081216 | 15 | 162 | 11.3 | 24.1 | 0.00 | 0.25 | 0.18 | 90 | 975.9 |
| 20260506080714 | 15 | 219 | 12.9 | 24.1 | 0.00 | 0.25 | 0.18 | 91 | 976.0 |
| 20260506080217 | 14 | 229 | 12.9 | 27.4 | 0.00 | 0.25 | 0.18 | 93 | 976.0 |
| 20260506073212 | 13 | 214 | 9.7 | 20.9 | 0.00 | 0.25 | 0.18 | 95 | 975.8 |
| 20260506072710 | 13 | 216 | 11.3 | 20.9 | 0.00 | 0.25 | 0.18 | 95 | 975.8 |
| 20260506072211 | 13 | 205 | 12.9 | 22.5 | 0.00 | 0.25 | 0.18 | 95 | 975.8 |
| 20260506071710 | 13 | 205 | 12.9 | 22.5 | 0.00 | 0.25 | 0.18 | 95 | 975.8 |
| 20260506071212 | 13 | 192 | 11.3 | 20.9 | 0.00 | 0.25 | 0.18 | 95 | 975.8 |
| 20260506070712 | 13 | 201 | 11.3 | 22.5 | 0.00 | 0.25 | 0.18 | 95 | 975.7 |
| 20260506070203 | 13 | 188 | 9.7 | 22.5 | 0.00 | 0.25 | 0.18 | 96 | 975.8 |